FW2969 Weather Reports


time (UTC)temp
F
wind
direction
speed
knots
gust
knots
rain 1hr
in
rain 24hr
in
rain mn
in
humidity
%
barometer
mb
20260904133103 74 309 1.7 6.1 0.00 0.00 0.00 84 1008.3
20260904131549 75 335 2.6 7.8 0.00 0.00 0.00 82 1008.2
20260904130055 75 267 1.7 5.2 0.00 0.00 0.00 81 1008.2
20260904124551 76 255 0.9 5.2 0.00 0.00 0.00 81 1008.1
20260904123052 75 333 3.5 8.7 0.00 0.00 0.00 82 1008.2
20260904121548 75 280 3.5 8.7 0.00 0.00 0.00 82 1008.2
20260904120058 75 348 2.6 7.8 0.00 0.00 0.00 81 1008.3
20260904114549 75 322 1.7 7.8 0.00 0.00 0.00 81 1008.2
20260904113046 76 323 2.6 9.6 0.00 0.00 0.00 79 1008.4
20260904111545 75 19 2.6 6.1 0.00 0.00 0.00 80 1008.4
20260904110045 75 311 2.6 8.7 0.00 0.00 0.00 81 1008.4
20260904104545 75 329 5.2 9.6 0.00 0.00 0.00 80 1008.6
20260904103044 74 245 0.9 8.7 0.00 0.00 0.00 81 1008.5
20260904101542 75 255 3.5 7.8 0.00 0.00 0.00 80 1008.5
20260904100041 75 234 2.6 10.4 0.00 0.00 0.00 79 1008.5
20260904094541 75 255 1.7 10.4 0.00 0.00 0.00 79 1008.6
20260904093040 75 307 4.3 11.3 0.00 0.00 0.00 78 1008.5
20260904091539 75 255 2.6 11.3 0.00 0.00 0.00 77 1008.6
20260904090038 76 323 2.6 7.8 0.00 0.00 0.00 75 1008.6
20260904084545 77 255 1.7 8.7 0.00 0.00 0.00 71 1008.5
20260904083040 77 275 1.7 7.0 0.00 0.00 0.00 68 1008.5
20260904081533 76 272 1.7 5.2 0.00 0.00 0.00 70 1008.6
20260904080045 75 289 3.5 7.0 0.00 0.00 0.00 68 1008.6
20260904074531 75 347 0.9 5.2 0.00 0.00 0.00 70 1008.7
20260904073029 75 304 1.7 4.3 0.00 0.00 0.00 70 1008.8
20260904071531 74 285 0.0 3.5 0.00 0.00 0.00 73 1008.8
20260904070035 73 355 0.9 4.3 0.00 0.00 0.00 76 1008.7
20260904064524 73 305 1.7 5.2 0.00 0.00 0.00 75 1008.6
20260904063021 72 211 0.0 4.3 0.00 0.00 0.00 75 1008.5
20260904061519 72 202 0.9 4.3 0.00 0.00 0.00 76 1008.4
20260904060017 71 207 0.0 0.0 0.00 0.00 0.00 80 1008.3
20260904054527 70 207 0.0 1.7 0.00 0.00 0.00 83 1008.2
20260904053018 69 207 0.0 2.6 0.00 0.00 0.00 84 1008.2
20260904051513 69 188 0.0 3.5 0.00 0.00 0.00 85 1008.1
20260904050011 69 166 0.9 2.6 0.00 0.00 0.00 83 1008.2
20260904044512 68 157 0.0 1.7 0.00 0.00 0.00 80 1008.2
20260904043009 67 128 0.0 1.7 0.00 0.00 0.00 77 1008.2
20260904041508 67 97 0.0 0.0 0.00 0.00 0.00 70 1008.2
20260904040010 67 97 0.0 0.0 0.00 0.00 0.00 67 1008.0
20260904034505 67 97 0.0 0.0 0.00 0.00 0.00 68 1007.9
20260904033007 67 97 0.0 0.9 0.00 0.00 0.00 69 1007.7
20260904031503 66 97 0.0 0.9 0.00 0.00 0.00 71 1007.6
20260904030001 66 97 0.0 0.9 0.00 0.00 0.00 72 1007.4
20260904024600 66 97 0.0 0.9 0.00 0.00 0.00 74 1007.5
20260904023057 65 97 0.0 0.9 0.00 0.00 0.00 76 1007.3
20260904021606 65 97 0.0 0.9 0.00 0.00 0.00 78 1007.3
20260904020056 65 97 0.0 0.9 0.00 0.00 0.00 83 1007.2
20260904014604 65 97 0.0 1.7 0.00 0.00 0.00 87 1007.2
20260904013113 65 99 0.0 0.9 0.00 0.00 0.00 89 1007.2
20260904011614 66 99 0.0 0.9 0.00 0.00 0.00 91 1007.2
20260904010045 66 100 0.0 2.6 0.00 0.00 0.00 92 1007.3
20260904004544 66 107 0.9 2.6 0.00 0.00 0.00 93 1007.4
20260904003044 66 101 0.9 2.6 0.00 0.00 0.00 92 1007.5
20260904001541 67 116 0.0 1.7 0.00 0.00 0.00 92 1007.5
20260904000040 67 97 0.9 2.6 0.00 0.00 0.00 92 1007.5
20260903234538 67 154 0.0 0.9 0.00 0.00 0.00 92 1007.5
20260903233038 68 157 0.0 1.7 0.00 0.00 0.00 92 1007.4
20260903231544 68 161 0.0 0.9 0.00 0.00 0.00 92 1007.5
20260903230036 68 161 0.0 1.7 0.00 0.00 0.00 92 1007.5
20260903224538 69 161 0.0 0.9 0.00 0.00 0.00 92 1007.5
20260903223033 69 161 0.0 0.9 0.00 0.00 0.00 93 1007.5
20260903221531 69 162 0.0 1.7 0.00 0.00 0.00 94 1007.4
20260903220036 70 197 0.0 0.0 0.00 0.00 0.00 94 1007.5
20260903214530 70 197 0.0 0.0 0.00 0.00 0.00 94 1007.5
20260903213026 70 197 0.0 0.0 0.00 0.00 0.00 95 1007.6
20260903211533 70 176 0.0 0.0 0.00 0.00 0.00 95 1007.7
20260903210022 70 176 0.0 0.0 0.00 0.00 0.00 95 1007.8
20260903204521 70 176 0.0 0.9 0.00 0.00 0.00 95 1007.8
20260903203021 70 176 0.0 0.9 0.00 0.00 0.00 94 1007.7
20260903201521 70 176 0.0 1.7 0.00 0.00 0.00 94 1007.8
20260903200020 70 129 0.0 0.0 0.00 0.00 0.00 95 1007.8
20260903194525 70 129 0.0 0.9 0.00 0.00 0.00 94 1007.6
20260903193019 70 129 0.0 0.9 0.00 0.00 0.00 94 1007.7
20260903191528 70 129 0.0 0.0 0.00 0.00 0.00 94 1007.6
20260903190018 70 129 0.0 0.0 0.00 0.00 0.00 94 1007.6
20260903184518 70 336 0.0 1.7 0.00 0.00 0.00 94 1007.5
20260903183017 70 339 0.0 0.9 0.00 0.00 0.00 93 1007.5
20260903181517 70 337 0.0 0.0 0.00 0.00 0.00 93 1007.6
20260903180022 70 327 0.0 0.9 0.00 0.00 0.00 92 1007.6
20260903174520 70 328 0.0 0.9 0.00 0.00 0.00 92 1007.5
20260903173015 71 328 0.0 0.0 0.00 0.00 0.00 91 1007.3
20260903171515 71 328 0.0 0.9 0.00 0.00 0.00 91 1007.3
20260903170020 71 328 0.0 0.0 0.00 0.00 0.00 90 1007.0
20260903164513 71 328 0.0 0.0 0.00 0.00 0.00 89 1006.9
20260903163012 72 328 0.0 0.9 0.00 0.00 0.00 88 1006.8
20260903161513 73 328 0.0 0.9 0.00 0.00 0.00 87 1006.8
20260903160012 73 308 0.0 0.9 0.00 0.00 0.00 85 1006.8
20260903154511 75 297 0.0 0.9 0.00 0.00 0.00 83 1006.8
20260903153011 76 299 0.0 2.6 0.00 0.00 0.00 81 1006.8
20260903151511 77 261 0.0 1.7 0.00 0.00 0.00 79 1006.8
20260903150011 78 255 0.0 2.6 0.00 0.00 0.00 77 1006.8
20260903144508 78 259 0.9 2.6 0.00 0.00 0.00 76 1006.9
20260903143009 78 285 0.0 3.5 0.00 0.00 0.00 78 1006.8
20260903141506 78 259 1.7 6.1 0.00 0.00 0.00 76 1006.7
20260903140006 78 301 0.9 4.3 0.00 0.00 0.00 77 1006.7
20260903134505 79 309 0.9 5.2 0.00 0.00 0.00 76 1006.6